Regional Weather Roundup
Issued by NWS Sterling, VA

Home | Current Version | Previous Version | Graphics & Text | Print | Product List | Glossary On
Versions: 1 2 3 4 5 6 7 8 9 10 11 12 13 14 15 16 17 18 19 20 21 22 23 24 25 26 27 28 29 30 31 32 33 34 35 36 37 38 39 40 41 42 43 44 45 46 47 48 49 50
000
ASUS41 KLWX 050911
RWRLWX

REGIONAL WEATHER ROUNDUP
NATIONAL WEATHER SERVICE BALTIMORE MD/WASHINGTON DC
500 AM EDT TUE MAY 05 2015

Note: "FAIR" indicates few or no clouds below 12,000 feet
with no significant weather and/or obstructions to visibility.
 TC=TEMPERATURE CELSIUS

 * =Non NWS site. Station does not report precipitation (e.g. rain,
    snow, etc.), thunder, or fog.

DCZ001-MDZ009-015-VAZ040>042-051-053>054-051000-
WASHINGTON METRO

CITY           SKY/WX    TMP DP  RH WIND       PRES   REMARKS
WASHINGTON NAT PTCLDY    65  54  67 SW7       30.21R
DULLES         PTCLDY    61  53  75 S7        30.21S
ANDREWS AFB    CLEAR     65  53  65 SW9       30.20S
FT BELVOIR     CLEAR     59  55  85 CALM      30.21R
QUANTICO       CLEAR     67  53  61 SW3       30.22S
COLLEGE PARK*  CLEAR     68  54  60 CALM      30.20S
LEESBURG*      CLEAR     59  55  88 W5        30.22S
MANASSAS*      CLEAR     57  54  88 CALM      30.22R
GAITHERSBURG*  CLEAR     61  52  72 W3        30.24S

$$

MDZ006>007-011-014-051000-
BALTIMORE METRO

CITY           SKY/WX    TMP DP  RH WIND       PRES   REMARKS
BWI AIRPORT    CLEAR     65  53  65 W6        30.18S
MD SCIENCE CTR   N/A     68  53  58 MISG      30.19S
MARTIN STATE   CLEAR     59  57  94 CALM      30.20S
ANNAPOLIS      CLEAR     67  51  56 VRB3      30.18S
FORT MEADE*    CLEAR     59  52  77 SW5       30.21S

$$

MDZ012-015-019>023-051000-
MARYLAND EASTERN SHORE

CITY           SKY/WX    TMP DP  RH WIND       PRES   REMARKS
OCEAN CITY     CLEAR     65  53  65 SW14      30.24S
SALISBURY      CLEAR     62  53  72 SW12      30.23F
BAY BRIDGE AP*   N/A    N/A N/A N/A S6        30.20S
CAMBRIDGE*     CLEAR     64  54  68 S6        30.21F
EASTON*        CLEAR     64  56  76 SW6       30.24S

$$

MDZ017>025-051000-
SOUTHERN MARYLAND

CITY           SKY/WX    TMP DP  RH WIND       PRES   REMARKS
PATUXENT RIVER CLEAR     65  54  67 SW17G23   30.21S
ST INIGOES     CLEAR     65  55  70 SW10      30.22F
LEONARDTOWN*   CLEAR     64  52  63 SW8       30.23F

$$

MDZ003>005-051000-
NORTH CENTRAL MARYLAND

CITY           SKY/WX    TMP DP  RH WIND       PRES   REMARKS
FREDERICK*     CLEAR     59  50  72 S3        30.22S
HAGERSTOWN APT MOCLDY    64  51  62 S5        30.20S
WESTMINSTER*   CLEAR     63  54  72 CALM      30.20S

$$

MDZ501>502-051000-
WESTERN MARYLAND

CITY           SKY/WX    TMP DP  RH WIND       PRES   REMARKS
OAKLAND*       CLOUDY    59  59 100 SW5       30.28S
CUMBERLAND*    MOCLDY    63  54  72 CALM      30.25S

$$

VAZ025>031-051000-
SHENANDOAH VALLEY

CITY           SKY/WX    TMP DP  RH WIND       PRES   REMARKS
WINCHESTER*    PTCLDY    59  46  63 CALM      30.21S
FRONT ROYAL*   FAIR      57  52  82 S6        30.21S
LURAY*         FAIR      55  55 100 CALM      30.23R
NEW MARKET*    FAIR      53  51  94 CALM      30.23S
STAUNTON*      CLEAR     52  49  89 CALM      30.26S
WAYNESBORO*    FAIR      54  51  87 CALM      30.25S

$$

WVZ021-048>050-054>055-051000-
EASTERN WEST VIRGINIA PANHANDLE

CITY           SKY/WX    TMP DP  RH WIND       PRES   REMARKS
MARTINSBURG    CLOUDY    62  51  67 CALM      30.21S
PETERSBURG*    CLOUDY    56  51  81 CALM      30.25S

$$

VAZ036>039-050-051000-
CENTRAL FOOTHILLS

CITY           SKY/WX    TMP DP  RH WIND       PRES   REMARKS
CHARLOTTESVILL CLEAR     60  53  77 S5        30.22S
CULPEPER*      NOT AVBL
ORANGE*        CLEAR     59  54  82 CALM      30.24S
GORDONSVILLE*  FAIR      55  52  90 CALM      30.22S
WARRENTON*     FAIR      62  55  79 SW3       30.21S

$$

VAZ055>057-051000-
NORTH AND CENTRAL PIEDMONT

CITY           SKY/WX    TMP DP  RH WIND       PRES   REMARKS
FREDERICKSBRG* CLEAR     66  55  68 SW5       30.21S
STAFFORD*      CLEAR     64  51  63 SW5       30.25S

$$

NCZ024-NYZ072-PAZ021-071-VAZ022-071-051000-
OTHER REGIONAL OBSERVATIONS

CITY           SKY/WX    TMP DP  RH WIND       PRES   REMARKS
NEW YORK CITY  CLEAR     67  46  47 VRB5      30.18R
PHILADELPHIA   PTCLDY    63  51  65 SW7       30.18S
PITTSBURGH     MOCLDY    59  57  93 CALM      30.22S
ROANOKE        CLEAR     60  51  72 CALM      30.28F
RICHMOND       CLEAR     62  54  74 S8        30.26S
RALEIGH        PTCLDY    58  53  84 SW5       30.32S

$$

ANZ530>537-051000-
MARINE OBSERVATIONS

STATION/POSITION TIME  TEMP    WIND        PRES
                       AIR SEA DIR/SP/G
                 (UTC) (F)     (DEG/KT/KT) (MB)
THOMAS PT LIGHT  0900   67 58  220/ 10/ 11 1023.1S
BALT KEY BRIDGE  0800   68     280/  1/  3 1021.9R
COVE POINT       0800   67     250/ 17/ 24 1023.2F
LEWISETTA        0800   66 66              1023.5F
SOLOMONS ISLAND  0800      61                N/A
PINEY POINT      0800          240/  9/ 13   N/A

$$




USA.gov is the U.S. government's official web portal to all federal, state and local government web resources and services.